Regional Weather Roundup
Issued by NWS Green Bay, WI

Home | Current Version | Previous Version | Graphics & Text | Print | Product List | Glossary Off
Versions: 1 2 3 4 5 6 7 8 9 10 11 12 13 14 15 16 17 18 19 20 21 22 23 24 25 26 27 28 29 30 31 32 33 34 35 36 37 38 39 40 41 42 43 44 45 46 47 48 49 50

000
ASUS43 KGRB 021900
RWRGRB

NORTH-CENTRAL AND NORTHEAST WISCONSIN REGIONAL WEATHER ROUNDUP
NATIONAL WEATHER SERVICE GREEN BAY WI
200 PM CDT SUN AUG 02 2015

WIZ005-009-010>012-018-019-022000-
NORTH CENTRAL WISCONSIN

CITY           SKY/WX    TMP DP  RH WIND       PRES   REMARKS
IRONWOOD       MOSUNNY   70  63  78 NW10G16   29.61R
MANITOWISH WTR NOT AVBL
ARBOR VITAE    NOT AVBL
EAGLE RIVER    NOT AVBL
LAND O LAKES   NOT AVBL
RHINELANDER    CLOUDY    66  61  84 CALM      29.65R
PHILLIPS       NOT AVBL
ANTIGO         NOT AVBL
TOMAHAWK       NOT AVBL
MERRILL        NOT AVBL
$$

WIZ013-073-022000-
NORTHEAST WISCONSIN

CITY           SKY/WX    TMP DP  RH WIND       PRES   REMARKS
IRON MOUNTAIN  LGT RAIN  63  61  93 SE5       29.59F
MARINETTE      CLOUDY    70  61  73 N25G59    29.68R THUNDER
$$

WIZ017-030-035>037-045-022000-
CENTRAL WISCONSIN

CITY           SKY/WX    TMP DP  RH WIND       PRES   REMARKS
MEDFORD        NOT AVBL
WAUSAU         PTSUNNY   82  67  60 VRB7      29.57F
MOSINEE        NOT AVBL
MARSHFIELD     CLOUDY    86  66  51 W18G25    29.60R
WISC RAPIDS    PTSUNNY   92  64  39 SW21G30   29.58F HX  93
STEVENS POINT  NOT AVBL
WAUPACA        NOT AVBL
SHAWANO        NOT AVBL
CLINTONVILLE   NOT AVBL
$$

WIZ038-039-048-051-022000-
FOX VALLEY

CITY           SKY/WX    TMP DP  RH WIND       PRES   REMARKS
NWS GREEN BAY  MOSUNNY   89  69  51 SW15G25   29.52F HX  93
APPLETON       NOT AVBL
OSHKOSH        SUNNY     89  69  51 SW22G32   29.56F HX  93
FOND DU LAC    SUNNY     88  71  57 SW17G28   29.60F HX  94
$$

WIZ022-050-052-022000-
EAST CENTRAL WISCONSIN

CITY           SKY/WX    TMP DP  RH WIND       PRES   REMARKS
STURGEON BAY   CLOUDY    75  66  73 E10       29.57F
MANITOWOC      NOT AVBL
SHEBOYGAN      SUNNY     90  70  51 SW24G31   29.59F HX  95
$$

LMZ563-521-522-541>543-022000-
LAKESHORE

STATION/POSITION TIME  TEMP    WIND        PRES    VSBY  WAVE
                       AIR SEA DIR/SP/G                  HT/PER
                 (UTC) (F)     (DEG/KT/KT) (MB)    (MI)  (FT/S)
SHEBOYGAN LKSHOR 1800   84     220/ 21/ 24 1002.8F
KEWAUNEE LKSHORE 1800   70     170/ 12/ 14 1001.6F
NORTHPORT PIER   1800   70     110/  2/  6 1002.0F
N MID LAKE BUOY  1750   69 69  270/  8/ 12 1004.1R         2/ 5
SISTER BAY LKSHO 1815   75     150/  7/ 10   N/A
STURGEON BAY CG  1810   69     120/  7     1003.9      6   1
CHAMBERS ISLAND  1800   72      70/  4/  6 1002.0F
MENOMINEE LKSHOR 1800   66     100/ 12/ 12 1002.7F
$$


USA.gov is the U.S. government's official web portal to all federal, state and local government web resources and services.